Location: Newark
(15.4608°S, 41.1635°W)
Time: 00:33:29
(UTC+00:00)

X-37B - Visible Passes

Search period start: 14 June 2021 00:00
Search period end: 24 June 2021 00:00
Orbit: 386 x 389 km, 45.0° (Epoch: 10 June)

Date Brightness Start Highest point End Pass type
(mag) Time Alt. Az. Time Alt. Az. Time Alt. Az.
17 Jun 1.8 21:12:44 10° SSW 21:15:24 23° SE 21:15:48 22° SE visible
18 Jun 1.9 21:50:34 10° WSW 21:53:36 40° NW 21:54:40 29° N visible
19 Jun 0.6 20:52:07 10° SW 20:55:18 64° SE 20:58:27 10° NE visible
20 Jun 3.8 21:31:27 10° W 21:33:23 15° NW 21:35:18 10° N visible
